TimeCDT,TemperatureF,Dew PointF,Humidity,Sea Level PressureIn,VisibilityMPH,Wind Direction,Wind SpeedMPH,Gust SpeedMPH,PrecipitationIn,Events,Conditions,WindDirDegrees,DateUTC
12:58 AM,71.6,61.5,70,29.86,10.0,NNE,15.0,20.7,N/A,,Overcast,30,2013-05-22 05:58:00
1:25 AM,71.6,59.0,64,29.88,10.0,NNE,13.8,-,N/A,,Overcast,30,2013-05-22 06:25:00
1:58 AM,72.1,58.3,62,29.86,10.0,NNE,12.7,-,N/A,,Overcast,30,2013-05-22 06:58:00
2:58 AM,71.1,58.6,65,29.85,10.0,NE,6.9,-,N/A,,Scattered Clouds,40,2013-05-22 07:58:00
3:58 AM,68.5,58.3,70,29.84,10.0,NNE,8.1,-,N/A,,Clear,30,2013-05-22 08:58:00
4:58 AM,67.8,57.9,71,29.83,10.0,NNE,6.9,-,N/A,,Scattered Clouds,30,2013-05-22 09:58:00
5:58 AM,63.3,59.7,88,29.84,10.0,ENE,4.6,-,N/A,,Clear,60,2013-05-22 10:58:00
6:58 AM,63.0,62.6,99,29.86,10.0,East,3.5,-,N/A,,Clear,80,2013-05-22 11:58:00
7:58 AM,66.2,64.4,94,29.86,10.0,East,5.8,-,N/A,,Clear,90,2013-05-22 12:58:00
8:35 AM,69.8,64.4,83,29.90,10.0,NE,9.2,-,N/A,,Mostly Cloudy,50,2013-05-22 13:35:00
8:43 AM,69.8,64.4,83,29.90,10.0,NE,8.1,-,N/A,,Scattered Clouds,50,2013-05-22 13:43:00
8:58 AM,71.1,63.7,77,29.89,10.0,NE,11.5,-,N/A,,Partly Cloudy,50,2013-05-22 13:58:00
9:25 AM,73.4,62.6,69,29.92,10.0,NE,11.5,-,N/A,,Mostly Cloudy,50,2013-05-22 14:25:00
9:58 AM,73.8,63.0,69,29.91,10.0,ENE,11.5,-,N/A,,Overcast,70,2013-05-22 14:58:00
10:58 AM,77.9,61.3,57,29.91,10.0,ENE,6.9,-,N/A,,Overcast,60,2013-05-22 15:58:00
11:58 AM,79.5,64.8,60,29.91,10.0,East,4.6,-,N/A,,Overcast,90,2013-05-22 16:58:00
12:16 PM,80.6,64.4,58,29.93,10.0,Variable,2.3,-,N/A,,Overcast,0,2013-05-22 17:16:00
12:43 PM,80.6,64.4,58,29.94,10.0,Variable,1.2,-,N/A,,Overcast,0,2013-05-22 17:43:00
12:58 PM,80.1,65.3,61,29.91,10.0,Variable,2.3,-,N/A,,Overcast,0,2013-05-22 17:58:00
1:14 PM,80.6,66.2,61,29.93,10.0,ESE,2.3,-,N/A,,Overcast,120,2013-05-22 18:14:00
1:58 PM,83.3,68.2,60,29.89,10.0,Variable,2.3,-,N/A,,Mostly Cloudy,0,2013-05-22 18:58:00
2:58 PM,85.5,69.4,59,29.87,10.0,Variable,2.3,-,N/A,,Mostly Cloudy,0,2013-05-22 19:58:00
3:58 PM,88.0,70.5,56,29.84,10.0,SE,3.5,-,N/A,,Clear,140,2013-05-22 20:58:00
4:58 PM,89.1,69.8,53,29.81,10.0,SSE,8.1,-,N/A,,Clear,160,2013-05-22 21:58:00
5:58 PM,90.0,69.8,51,29.80,10.0,SE,8.1,-,N/A,,Clear,140,2013-05-22 22:58:00
6:58 PM,88.7,68.7,51,29.79,10.0,ESE,9.2,-,N/A,,Clear,120,2013-05-22 23:58:00
7:58 PM,85.8,70.0,59,29.80,10.0,ESE,8.1,-,N/A,,Clear,120,2013-05-23 00:58:00
8:58 PM,81.3,70.7,70,29.83,10.0,ESE,5.8,-,N/A,,Partly Cloudy,110,2013-05-23 01:58:00
9:58 PM,80.6,72.5,76,29.85,10.0,SE,8.1,-,N/A,,Mostly Cloudy,140,2013-05-23 02:58:00
10:58 PM,79.9,72.7,79,29.89,10.0,SSE,10.4,-,N/A,,Clear,160,2013-05-23 03:58:00
11:58 PM,76.8,73.0,88,29.90,10.0,South,6.9,-,N/A,,Clear,170,2013-05-23 04:58:00